FW3572 Weather Reports


Display with metric or nautical units.
time (UTC)temp
F
wind
direction
speed
MPH
gust
MPH
rain 1hr
in
rain 24hr
in
rain mn
in
humidity
%
barometer
mb
20210305161915 74 13 3.0 10.0 0.00 0.00 0.00 33 1017.9
20210305161059 74 103 4.0 10.0 0.00 0.00 0.00 35 1017.7
20210305160613 74 5 3.0 9.0 0.00 0.00 0.00 36 1017.5
20210305160252 73 29 4.0 10.0 0.00 0.00 0.00 36 1017.6
20210305155802 74 30 4.0 10.0 0.00 0.00 0.00 35 1017.8
20210305155257 74 302 2.0 8.0 0.00 0.00 0.00 32 1017.7
20210305154646 74 350 4.0 10.0 0.00 0.00 0.00 35 1017.8
20210305154103 74 10 3.0 10.0 0.00 0.00 0.00 34 1017.7
20210305153625 73 11 4.0 8.0 0.00 0.00 0.00 35 1017.7
20210305153215 73 24 3.0 8.0 0.00 0.00 0.00 35 1017.7
20210305153041 73 59 2.0 9.0 0.00 0.00 0.00 36 1017.7
20210305152700 73 325 3.0 9.0 0.00 0.00 0.00 34 1017.7
20210305151653 73 315 3.0 9.0 0.00 0.00 0.00 34 1017.7
20210305151053 72 302 2.0 9.0 0.00 0.00 0.00 32 1017.5
20210305150549 72 333 2.0 9.0 0.00 0.00 0.00 35 1017.6
20210305150147 71 290 1.0 8.0 0.00 0.00 0.00 36 1017.6
20210305145853 71 355 0.0 6.0 0.00 0.00 0.00 39 1017.5
20210305145525 70 336 2.0 9.0 0.00 0.00 0.00 39 1017.5
20210305144606 70 327 2.0 9.0 0.00 0.00 0.00 42 1017.6
20210305144110 70 16 4.0 9.0 0.00 0.00 0.00 43 1017.5
20210305143555 69 9 3.0 9.0 0.00 0.00 0.00 43 1017.5
20210305143152 69 57 3.0 9.0 0.00 0.00 0.00 44 1017.5
20210305142811 68 325 1.0 9.0 0.00 0.00 0.00 47 1017.5
20210305142220 67 355 2.0 9.0 0.00 0.00 0.00 47 1017.5
20210305141631 67 342 2.0 8.0 0.00 0.00 0.00 48 1017.3
20210305141036 66 360 1.0 8.0 0.00 0.00 0.00 49 1017.2
20210305140551 66 360 2.0 8.0 0.00 0.00 0.00 51 1017.2
20210305140328 65 360 0.0 7.0 0.00 0.00 0.00 54 1017.3
20210305140056 64 319 2.0 8.0 0.00 0.00 0.00 55 1017.4
20210305135512 63 319 3.0 8.0 0.00 0.00 0.00 55 1017.3
20210305134604 63 319 2.0 6.0 0.00 0.00 0.00 57 1017.4
20210305134040 63 348 1.0 8.0 0.00 0.00 0.00 58 1017.4
20210305133549 62 315 2.0 8.0 0.00 0.00 0.00 59 1017.3
20210305133120 61 318 3.0 6.0 0.00 0.00 0.00 60 1017.3
20210305132856 61 26 1.0 8.0 0.00 0.00 0.00 61 1017.2
20210305132337 60 324 1.0 8.0 0.00 0.00 0.00 62 1017.2
20210305131544 60 320 2.0 5.0 0.00 0.00 0.00 63 1017.1
20210305131039 59 355 2.0 6.0 0.00 0.00 0.00 63 1017.1
20210305130611 58 315 1.0 5.0 0.00 0.00 0.00 65 1017.0
20210305130350 58 11 2.0 4.0 0.00 0.00 0.00 65 1017.0
20210305130024 57 331 2.0 5.0 0.00 0.00 0.00 67 1017.0
20210305125408 57 331 2.0 5.0 0.00 0.00 0.00 67 1017.2
20210305124527 56 342 2.0 5.0 0.00 0.00 0.00 68 1017.2
20210305124032 55 327 3.0 6.0 0.00 0.00 0.00 69 1017.2
20210305123610 55 333 2.0 6.0 0.00 0.00 0.00 70 1017.2
20210305123344 55 348 1.0 5.0 0.00 0.00 0.00 70 1017.1
20210305123148 54 310 2.0 4.0 0.00 0.00 0.00 71 1017.0
20210305122630 54 306 1.0 5.0 0.00 0.00 0.00 72 1016.9
20210305121607 54 328 1.0 5.0 0.00 0.00 0.00 72 1016.9
20210305121034 53 338 1.0 4.0 0.00 0.00 0.00 72 1016.9
20210305120524 53 335 2.0 4.0 0.00 0.00 0.00 73 1016.9
20210305120027 53 330 1.0 4.0 0.00 0.00 0.00 73 1016.8
20210305115908 53 5 1.0 4.0 0.00 0.00 0.00 73 1016.9
20210305115524 53 315 2.0 4.0 0.00 0.00 0.00 73 1016.6
20210305114548 53 331 1.0 4.0 0.00 0.00 0.00 73 1016.5
20210305114025 53 320 1.0 4.0 0.00 0.00 0.00 73 1016.3
20210305113550 53 329 1.0 4.0 0.00 0.00 0.00 74 1016.4
20210305113100 53 323 1.0 4.0 0.00 0.00 0.00 74 1016.4
20210305112816 53 326 1.0 4.0 0.00 0.00 0.00 74 1016.4
20210305112157 53 319 0.0 2.0 0.00 0.00 0.00 74 1016.4
20210305111535 53 317 0.0 2.0 0.00 0.00 0.00 74 1016.3
20210305111028 53 313 0.0 3.0 0.00 0.00 0.00 74 1016.3
20210305110526 53 323 0.0 3.0 0.00 0.00 0.00 74 1016.3
20210305110047 53 324 0.0 3.0 0.00 0.00 0.00 74 1016.3
20210305105925 53 325 1.0 4.0 0.00 0.00 0.00 74 1016.4
20210305105423 53 313 1.0 4.0 0.00 0.00 0.00 74 1016.3
20210305104525 53 325 1.0 3.0 0.00 0.00 0.00 74 1016.3
20210305104028 53 318 1.0 3.0 0.00 0.00 0.00 74 1016.2
20210305103525 53 337 1.0 4.0 0.00 0.00 0.00 74 1016.1
20210305103115 53 319 1.0 5.0 0.00 0.00 0.00 74 1016.1
20210305102744 53 319 2.0 5.0 0.00 0.00 0.00 74 1016.1
20210305102148 53 313 2.0 5.0 0.00 0.00 0.00 74 1016.1
20210305101541 54 315 1.0 4.0 0.00 0.00 0.00 74 1016.0
20210305101041 54 329 1.0 4.0 0.00 0.00 0.00 74 1016.0
20210305100525 54 313 1.0 3.0 0.00 0.00 0.00 74 1015.8
20210305100117 54 313 1.0 4.0 0.00 0.00 0.00 74 1015.9
20210305095838 54 317 1.0 4.0 0.00 0.00 0.00 74 1016.1
20210305095139 54 303 0.0 4.0 0.00 0.00 0.00 74 1016.0
20210305094517 54 308 1.0 3.0 0.00 0.00 0.00 74 1015.9
20210305094020 54 304 0.0 3.0 0.00 0.00 0.00 74 1015.9
20210305093510 54 304 0.0 3.0 0.00 0.00 0.00 74 1016.0
20210305093017 54 322 0.0 4.0 0.00 0.00 0.00 74 1015.9
20210305092600 54 323 0.0 3.0 0.00 0.00 0.00 74 1016.0
20210305091702 54 300 0.0 3.0 0.00 0.00 0.00 74 1016.0
20210305091105 54 292 0.0 3.0 0.00 0.00 0.00 74 1015.9
20210305090626 54 331 0.0 4.0 0.00 0.00 0.00 74 1015.9
20210305090231 54 293 1.0 4.0 0.00 0.00 0.00 74 1016.0
20210305085800 54 309 0.0 4.0 0.00 0.00 0.00 74 1015.9
20210305085347 54 337 0.0 4.0 0.00 0.00 0.00 74 1015.8
20210305084632 55 313 1.0 4.0 0.00 0.00 0.00 74 1015.8
20210305084059 55 321 2.0 4.0 0.00 0.00 0.00 73 1015.8
20210305083559 55 327 1.0 3.0 0.00 0.00 0.00 74 1015.8
20210305083141 55 323 1.0 3.0 0.00 0.00 0.00 74 1015.8
20210305082935 55 324 1.0 4.0 0.00 0.00 0.00 74 1015.9
20210305082516 55 326 0.0 4.0 0.00 0.00 0.00 74 1015.8
20210305081717 55 323 1.0 5.0 0.00 0.00 0.00 73 1015.8
20210305081114 55 297 1.0 6.0 0.00 0.00 0.00 73 1016.0
20210305080559 55 323 2.0 6.0 0.00 0.00 0.00 73 1016.0
20210305080311 55 330 1.0 5.0 0.00 0.00 0.00 73 1016.0
20210305075741 55 300 1.0 4.0 0.00 0.00 0.00 73 1016.1
20210305074701 56 313 1.0 7.0 0.00 0.00 0.00 73 1016.1
20210305074058 56 316 1.0 7.0 0.00 0.00 0.00 73 1016.1
20210305073550 56 323 2.0 5.0 0.00 0.00 0.00 73 1016.2
20210305073118 56 314 1.0 5.0 0.00 0.00 0.00 73 1016.2
20210305072832 56 285 1.0 6.0 0.00 0.00 0.00 73 1016.3
20210305072351 56 313 2.0 6.0 0.00 0.00 0.00 73 1016.3
20210305071616 56 320 1.0 5.0 0.00 0.00 0.00 73 1016.3
20210305071048 56 329 1.0 7.0 0.00 0.00 0.00 73 1016.3
20210305070603 56 323 2.0 7.0 0.00 0.00 0.00 72 1016.4
20210305070431 57 329 3.0 6.0 0.00 0.00 0.00 72 1016.3
20210305065838 57 331 1.0 9.0 0.00 0.00 0.00 72 1016.3
20210305065319 57 318 3.0 9.0 0.00 0.00 0.00 72 1016.3
20210305064618 57 328 2.0 6.0 0.00 0.00 0.00 72 1016.3
20210305064044 57 315 2.0 5.0 0.00 0.00 0.00 72 1016.3
20210305063547 57 328 2.0 7.0 0.00 0.00 0.00 73 1016.3
20210305063210 57 311 2.0 7.0 0.00 0.00 0.00 73 1016.3
20210305063000 57 355 2.0 6.0 0.00 0.00 0.00 73 1016.2
20210305062659 57 321 0.0 2.0 0.00 0.00 0.00 73 1016.1
20210305061708 57 319 0.0 0.0 0.00 0.00 0.00 73 1016.2
20210305061041 57 319 0.0 0.0 0.00 0.00 0.00 73 1016.1
20210305060542 57 317 0.0 0.0 0.00 0.00 0.00 73 1016.2
20210305060137 57 319 0.0 0.0 0.00 0.00 0.00 73 1016.2
20210305055850 57 319 0.0 0.0 0.00 0.00 0.00 73 1016.1
20210305055340 57 319 0.0 0.0 0.00 0.00 0.00 73 1016.1
20210305054624 57 319 0.0 0.0 0.00 0.00 0.00 73 1016.1
20210305054048 57 319 0.0 0.0 0.00 0.00 0.00 73 1016.1
20210305053540 58 320 0.0 0.0 0.00 0.00 0.00 73 1016.2
20210305053114 58 320 0.0 0.0 0.00 0.00 0.00 73 1016.1
20210305052809 58 320 0.0 2.0 0.00 0.00 0.00 73 1016.1
20210305052246 58 320 0.0 2.0 0.00 0.00 0.00 73 1016.2
20210305051600 58 320 0.0 2.0 0.00 0.00 0.00 73 1016.1
20210305051038 58 320 0.0 2.0 0.00 0.00 0.00 73 1016.1
20210305050539 58 319 0.0 2.0 0.00 0.00 0.00 73 1016.1
20210305050153 58 319 0.0 2.0 0.00 0.00 0.00 73 1016.2
20210305045826 58 319 0.0 2.0 0.00 0.00 0.00 73 1016.2
20210305045428 58 319 0.0 2.0 0.00 0.00 0.00 73 1016.3
20210305044603 58 318 1.0 2.0 0.00 0.00 0.00 73 1016.3
20210305044103 58 315 0.0 2.0 0.00 0.00 0.00 73 1016.5
20210305043544 58 315 0.0 2.0 0.00 0.00 0.00 73 1016.4
20210305042921 58 315 0.0 3.0 0.00 0.00 0.00 72 1016.4
20210305042420 59 315 0.0 3.0 0.00 0.00 0.00 72 1016.5
20210305041548 59 316 0.0 2.0 0.00 0.00 0.00 72 1016.5
20210305041035 59 316 0.0 3.0 0.00 0.00 0.00 72 1016.5
20210305040546 59 317 0.0 3.0 0.00 0.00 0.00 71 1016.4
20210305040401 59 315 0.0 3.0 0.00 0.00 0.00 71 1016.6
20210305040128 59 315 0.0 3.0 0.00 0.00 0.00 71 1016.7
20210305035928 60 315 0.0 2.0 0.00 0.00 0.00 71 1016.6
20210305034650 60 317 0.0 2.0 0.00 0.00 0.00 71 1016.6
20210305034043 60 317 0.0 2.0 0.00 0.00 0.00 70 1016.6
20210305033533 60 317 0.0 3.0 0.00 0.00 0.00 70 1016.6
20210305033123 60 319 0.0 3.0 0.00 0.00 0.00 70 1016.6
20210305032638 60 319 0.0 3.0 0.00 0.00 0.00 69 1016.5
20210305032146 60 322 0.0 3.0 0.00 0.00 0.00 69 1016.4
20210305031540 61 321 0.0 3.0 0.00 0.00 0.00 69 1016.4
20210305031036 61 317 0.0 4.0 0.00 0.00 0.00 68 1016.4
20210305030530 61 343 0.0 2.0 0.00 0.00 0.00 68 1016.5
20210305030122 61 343 0.0 2.0 0.00 0.00 0.00 68 1016.5
20210305025933 61 343 0.0 2.0 0.00 0.00 0.00 67 1016.5
20210305025407 61 342 0.0 2.0 0.00 0.00 0.00 67 1016.6
20210305024552 61 342 0.0 2.0 0.00 0.00 0.00 67 1016.5
20210305024036 62 342 0.0 3.0 0.00 0.00 0.00 67 1016.5
20210305023529 62 344 1.0 3.0 0.00 0.00 0.00 66 1016.5
20210305022853 62 346 0.0 4.0 0.00 0.00 0.00 66 1016.5
20210305022229 62 345 0.0 4.0 0.00 0.00 0.00 66 1016.4
20210305021648 62 355 1.0 4.0 0.00 0.00 0.00 66 1016.4
20210305021032 62 355 1.0 4.0 0.00 0.00 0.00 66 1016.3
20210305020533 62 5 1.0 4.0 0.00 0.00 0.00 66 1016.3
20210305020142 62 5 0.0 4.0 0.00 0.00 0.00 66 1016.4
20210305015901 62 5 1.0 4.0 0.00 0.00 0.00 66 1016.4
20210305015239 62 11 1.0 4.0 0.00 0.00 0.00 66 1016.5
20210305014644 63 337 1.0 4.0 0.00 0.00 0.00 66 1016.3
20210305014038 63 311 0.0 4.0 0.00 0.00 0.00 66 1016.3
20210305013526 63 335 2.0 4.0 0.00 0.00 0.00 66 1016.2
20210305013217 63 355 0.0 3.0 0.00 0.00 0.00 66 1016.1
20210305012905 63 349 0.0 3.0 0.00 0.00 0.00 65 1016.1
20210305012350 63 351 0.0 3.0 0.00 0.00 0.00 65 1016.1
20210305011621 63 355 0.0 3.0 0.00 0.00 0.00 65 1016.1
20210305011034 63 355 0.0 4.0 0.00 0.00 0.00 65 1016.1
20210305010531 63 360 0.0 4.0 0.00 0.00 0.00 65 1016.1
20210305010056 63 11 1.0 4.0 0.00 0.00 0.00 64 1016.2
20210305005830 63 360 1.0 4.0 0.00 0.00 0.00 64 1016.1
20210305005413 63 17 1.0 4.0 0.00 0.00 0.00 64 1016.1
20210305004605 63 18 1.0 4.0 0.00 0.00 0.00 64 1016.0
20210305004045 63 17 1.0 4.0 0.00 0.00 0.00 64 1016.1
20210305003529 63 11 0.0 3.0 0.00 0.00 0.00 64 1016.0
20210305003125 63 11 1.0 4.0 0.00 0.00 0.00 64 1015.9
20210305002813 63 10 0.0 5.0 0.00 0.00 0.00 64 1015.8
20210305002253 63 355 2.0 5.0 0.00 0.00 0.00 64 1015.7
20210305001632 63 344 1.0 5.0 0.00 0.00 0.00 64 1015.7
20210305001030 63 5 1.0 4.0 0.00 0.00 0.00 64 1015.7
20210305000700 63 355 1.0 5.0 0.00 0.00 0.00 64 1015.8
20210305000022 64 34 1.0 8.0 0.00 0.00 0.00 64 1015.7
20210304235614 64 15 2.0 8.0 0.00 0.00 0.00 64 1015.8
20210304234612 64 17 1.0 5.0 0.00 0.00 0.00 64 1015.9
20210304234025 64 26 2.0 6.0 0.00 0.00 0.00 64 1015.8
20210304233536 64 344 2.0 8.0 0.00 0.00 0.00 64 1015.8
20210304233215 64 328 3.0 6.0 0.00 0.00 0.00 64 1015.8
20210304233028 64 21 2.0 8.0 0.00 0.00 0.00 64 1015.8
20210304232528 64 355 2.0 8.0 0.00 0.00 0.00 64 1015.6
20210304231538 64 23 3.0 8.0 0.00 0.00 0.00 64 1015.7
20210304231046 64 360 2.0 8.0 0.00 0.00 0.00 64 1015.6
20210304230540 65 5 3.0 9.0 0.00 0.00 0.00 64 1015.6
20210304230145 65 346 4.0 9.0 0.00 0.00 0.00 64 1015.5
20210304225950 65 10 2.0 9.0 0.00 0.00 0.00 64 1015.5
20210304225328 65 5 4.0 9.0 0.00 0.00 0.00 63 1015.5
20210304224553 65 324 1.0 10.0 0.00 0.00 0.00 63 1015.5
20210304224040 65 11 2.0 9.0 0.00 0.00 0.00 63 1015.5
20210304223530 65 17 1.0 9.0 0.00 0.00 0.00 63 1015.5
20210304223130 66 336 5.0 9.0 0.00 0.00 0.00 63 1015.5
20210304222839 66 27 3.0 8.0 0.00 0.00 0.00 62 1015.5
20210304222246 66 26 2.0 10.0 0.00 0.00 0.00 62 1015.5
20210304221530 66 360 1.0 10.0 0.00 0.00 0.00 62 1015.5
20210304221033 67 15 2.0 9.0 0.00 0.00 0.00 61 1015.5
20210304220524 66 348 3.0 9.0 0.00 0.00 0.00 61 1015.3
20210304220225 66 15 4.0 9.0 0.00 0.00 0.00 61 1015.4
20210304220057 67 348 4.0 11.0 0.00 0.00 0.00 60 1015.3
20210304215627 67 360 4.0 15.0 0.00 0.00 0.00 59 1015.4
20210304214542 68 341 4.0 15.0 0.00 0.00 0.00 58 1015.3
20210304214048 68 343 1.0 12.0 0.00 0.00 0.00 58 1015.3
20210304213534 68 5 6.0 14.0 0.00 0.00 0.00 59 1015.4
20210304213045 68 32 6.0 14.0 0.00 0.00 0.00 59 1015.5
20210304212832 68 333 5.0 13.0 0.00 0.00 0.00 58 1015.4
20210304212301 68 350 5.0 13.0 0.00 0.00 0.00 58 1015.3
20210304211034 69 360 6.0 13.0 0.00 0.00 0.00 59 1015.3
20210304210522 69 18 6.0 13.0 0.00 0.00 0.00 59 1015.3
20210304210046 68 335 5.0 13.0 0.00 0.00 0.00 59 1015.3
20210304205901 69 360 5.0 13.0 0.00 0.00 0.00 58 1015.3
20210304205445 70 36 3.0 14.0 0.00 0.00 0.00 58 1015.3
20210304204603 69 5 6.0 14.0 0.00 0.00 0.00 58 1015.3
20210304204040 70 12 5.0 11.0 0.00 0.00 0.00 58 1015.3
20210304203700 70 37 4.0 11.0 0.00 0.00 0.00 57 1015.4
20210304203410 70 5 2.0 11.0 0.00 0.00 0.00 58 1015.4
20210304203139 69 339 5.0 12.0 0.00 0.00 0.00 59 1015.4
20210304202713 69 5 5.0 12.0 0.00 0.00 0.00 58 1015.4
20210304201559 69 17 3.0 12.0 0.00 0.00 0.00 58 1015.3
20210304201023 69 14 4.0 12.0 0.00 0.00 0.00 58 1015.3
20210304200525 69 55 5.0 12.0 0.00 0.00 0.00 59 1015.3
20210304200254 69 15 6.0 16.0 0.00 0.00 0.00 58 1015.3
20210304200036 70 344 5.0 16.0 0.00 0.00 0.00 57 1015.4
20210304195447 70 61 5.0 11.0 0.00 0.00 0.00 57 1015.4
20210304194532 70 5 4.0 13.0 0.00 0.00 0.00 58 1015.4
20210304194032 70 355 4.0 13.0 0.00 0.00 0.00 56 1015.4
20210304193536 71 38 4.0 14.0 0.00 0.00 0.00 57 1015.4
20210304193202 71 9 6.0 14.0 0.00 0.00 0.00 56 1015.5
20210304192952 71 313 5.0 11.0 0.00 0.00 0.00 55 1015.5
20210304192403 71 360 2.0 13.0 0.00 0.00 0.00 55 1015.5
20210304191542 72 334 7.0 13.0 0.00 0.00 0.00 54 1015.5
20210304191031 71 360 3.0 10.0 0.00 0.00 0.00 56 1015.6
20210304190521 70 340 5.0 10.0 0.00 0.00 0.00 55 1015.7
20210304190122 70 42 4.0 10.0 0.00 0.00 0.00 56 1015.8
20210304185908 70 9 1.0 11.0 0.00 0.00 0.00 55 1015.9
20210304185335 71 5 4.0 12.0 0.00 0.00 0.00 54 1016.0
20210304184543 71 322 2.0 12.0 0.00 0.00 0.00 53 1016.0
20210304184033 71 297 4.0 14.0 0.00 0.00 0.00 52 1016.1
20210304183512 70 331 6.0 14.0 0.00 0.00 0.00 54 1016.2
20210304183022 70 330 3.0 11.0 0.00 0.00 0.00 54 1016.4
20210304182815 70 331 3.0 11.0 0.00 0.00 0.00 54 1016.5
20210304182218 70 355 5.0 10.0 0.00 0.00 0.00 55 1016.7
20210304181540 70 343 4.0 11.0 0.00 0.00 0.00 55 1016.6
20210304181026 70 327 4.0 11.0 0.00 0.00 0.00 56 1016.7
20210304180609 70 338 4.0 10.0 0.00 0.00 0.00 56 1016.8
20210304180520 70 308 4.0 10.0 0.00 0.00 0.00 56 1016.8
20210304180308 70 315 4.0 13.0 0.00 0.00 0.00 56 1016.9
20210304175926 69 332 2.0 13.0 0.00 0.00 0.00 58 1016.9
20210304175349 69 13 2.0 10.0 0.00 0.00 0.00 58 1017.0
20210304174626 69 316 2.0 10.0 0.00 0.00 0.00 57 1017.1
20210304174140 69 300 3.0 10.0 0.00 0.00 0.00 58 1017.2
20210304173609 69 5 4.0 10.0 0.00 0.00 0.00 57 1017.2
20210304173234 69 308 1.0 9.0 0.00 0.00 0.00 58 1017.3
20210304172814 69 311 5.0 11.0 0.00 0.00 0.00 57 1017.3
20210304172337 69 259 4.0 11.0 0.00 0.00 0.00 58 1017.3
20210304171633 69 340 3.0 9.0 0.00 0.00 0.00 57 1017.4
20210304171059 69 313 2.0 10.0 0.00 0.00 0.00 58 1017.4
20210304170752 68 327 4.0 10.0 0.00 0.00 0.00 58 1017.4
20210304170513 68 355 1.0 9.0 0.00 0.00 0.00 59 1017.5
20210304170229 69 304 3.0 10.0 0.00 0.00 0.00 59 1017.5
20210304165925 68 335 4.0 11.0 0.00 0.00 0.00 60 1017.5
20210304164625 67 315 5.0 11.0 0.00 0.00 0.00 59 1017.6
20210304164119 68 328 2.0 9.0 0.00 0.00 0.00 61 1017.5
20210304163554 67 345 3.0 9.0 0.00 0.00 0.00 61 1017.5
20210304163317 66 306 4.0 11.0 0.00 0.00 0.00 63 1017.6
20210304163158 66 360 2.0 9.0 0.00 0.00 0.00 63 1017.6
20210304162224 65 351 4.0 11.0 0.00 0.00 0.00 63 1017.7